User: anonymous   Login
Location: ????????
(38.4362°N, 22.8767°E)
Time: 14:40:17
(UTC+00:00)
Language:

ACS3 Solar Sail - Orbit

View from above orbital plane
View from above orbital plane
View from above satellite
View from above satellite

Ground track
Ground track

The orbit data is extracted from the following two-line orbital elements,

1 59588U 24077B   24200.77784148  .00000086  00000-0  13535-3 0  9993
2 59588  97.4047 261.6190 0020295  12.3104 347.8539 13.67692176 11720
Epoch (UTC): 18 July 2024 18:40:05
Eccentricity: 0.0020295
inclination: 97.4047°
perigee height: 993 km
apogee height: 1023 km
right ascension of ascending node: 261.6190°
argument of perigee: 12.3104°
revolutions per day: 13.67692176
mean anomaly at epoch: 347.8539°
orbit number at epoch: 1172

The dashed part of the orbit path shows where the satellite is in the earth's shadow,  

DLR